AO-07 1 07530U 74089B 16195.86511907 -.00000024 00000-0 12706-3 0 9998 2 07530 101.5762 165.9737 0011522 259.3493 129.4719 12.53622068906466 FO-29 1 24278U 96046B 16196.16145779 -.00000025 00000-0 82163-5 0 9994 2 24278 98.5849 117.8491 0351077 132.6773 230.4516 13.53068742983168 RS-22 1 27939U 03042A 16196.86257708 .00000245 00000-0 52663-4 0 9992 2 27939 97.8926 347.4759 0012270 211.7955 307.3771 14.66422816683874 HO-68 1 36122U 09072B 16196.57235586 -.00000039 00000-0 94939-5 0 9998 2 36122 100.1407 231.3217 0006833 296.0245 64.0164 13.16335058316215 AO-73 1 39444U 13066AE 16196.11702792 .00000486 00000-0 67660-4 0 9999 2 39444 97.6789 248.4751 0057391 293.4544 66.0643 14.81099037141563 EO-79 1 40025U 14033R 16196.69624168 .00000689 00000-0 81071-4 0 9991 2 40025 97.9262 102.1474 0012233 340.8083 19.2671 14.88047247112290 XW-2A 1 40903U 15049E 16196.78394076 .00004890 00000-0 13858-3 0 9991 2 40903 97.4449 212.2697 0016959 42.0317 318.2225 15.36606673 45792 XW-2C 1 40906U 15049H 16196.80416946 .00001775 00000-0 10211-3 0 9997 2 40906 97.4534 203.2881 0014246 306.2735 53.7179 15.13671169 45180 LILACSAT-2 1 40908U 15049K 16196.76847403 .00001119 00000-0 67684-4 0 9999 2 40908 97.4599 203.1307 0014908 299.3762 60.5980 15.12594062 45150 XW-2E 1 40909U 15049L 16196.73892962 .00002717 00000-0 15016-3 0 9993 2 40909 97.4528 203.5177 0013341 309.4511 50.5540 15.14672811 45193 UO-11 1 14781U 84021B 16195.68977215 .00000184 00000-0 29120-4 0 9994 2 14781 97.7473 246.8801 0007513 220.3934 139.6723 14.82764138740183 LO-19 1 20442U 90005G 16196.78902951 .00000034 00000-0 28370-4 0 9991 2 20442 98.5439 131.3479 0012940 66.8511 293.4035 14.32822381383300 AO-27 1 22825U 93061C 16196.79380396 .00000021 00000-0 25690-4 0 9995 2 22825 98.7611 153.2143 0007424 233.1185 126.9317 14.29961138189182 IO-26 1 22826U 93061D 16195.85259065 .00000026 00000-0 27414-4 0 9991 2 22826 98.7553 152.3880 0008017 226.4351 133.6166 14.30286085189219 GO-32 1 25397U 98043D 16196.76249260 -.00000003 00000-0 17552-4 0 9997 2 25397 98.5682 140.9908 0000137 208.5430 151.5741 14.23597985935789 NO-44 1 26931U 01043C 16195.83767538 -.00000014 00000-0 26397-4 0 9995 2 26931 067.0502 244.1527 0006408 259.9544 100.0835 14.30414910771889 SO-50 1 27607U 02058C 16196.75665001 .00000142 00000-0 41056-4 0 9997 2 27607 64.5555 76.6110 0065266 211.0430 148.6810 14.75177195729330 CO-55 1 27844U 03031E 16195.98059751 .00000089 00000-0 60317-4 0 9996 2 27844 98.6920 203.8820 0008567 242.2976 117.7332 14.21961374676250 CO-57 1 27848U 03031J 16195.96033324 .00000074 00000-0 53907-4 0 9997 2 27848 98.7018 203.9669 0008421 252.0839 107.9420 14.21586595676146 CO-65 1 32785U 08021C 16196.41102770 .00000551 00000-0 66257-4 0 9992 2 32785 97.6010 229.4929 0012640 200.4678 159.6034 14.87599098444670 PRISM 1 33493U 09002B 16196.84754183 .00001765 00000-0 16684-3 0 9993 2 33493 98.2140 58.2392 0016948 112.6538 247.6488 14.95002451405369 TISAT-1 1 36799U 10035E 16196.79026284 .00001094 00000-0 11983-3 0 9993 2 36799 98.0328 307.4974 0012441 1.9343 358.1920 14.89865720325538 ALMASAT-1 1 38078U 12006B 16196.39626690 .00023527 34667-5 32888-3 0 9991 2 38078 69.4462 309.8829 0376429 62.4808 301.4049 15.04301302233678 DUCHIFAT-1 1 40021U 14033M 16196.69479331 .00001093 00000-0 12109-3 0 9992 2 40021 97.9294 103.2907 0012811 338.9233 21.1455 14.89356270112350 NANOSATCBR1 1 40024U 14033Q 16196.68662824 .00000936 00000-0 10605-3 0 9999 2 40024 97.9269 102.6473 0012030 339.4267 20.6464 14.88759238112323 DTUSAT-2 1 40030U 14033W 16196.68444326 .00000696 00000-0 82546-4 0 9998 2 40030 97.9239 101.5644 0011508 334.8976 25.1679 14.87680588112261 ANTELSAT 1 40034U 14033AA 16196.73412773 .00000394 00000-0 67155-4 0 9993 2 40034 97.9002 84.3106 0058174 298.3893 61.1462 14.73416077111237 MET-2/21 1 22782U 93055A 16196.20129126 .00000017 00000-0 20795-5 0 9995 2 22782 82.5506 291.7929 0021193 300.5698 81.9852 13.83790939154954 NOAA-15 1 25338U 98030A 16196.45212516 .00000106 00000-0 63351-4 0 9999 2 25338 98.7829 200.6564 0011806 105.4534 254.7950 14.25740738944872 NOAA-18 1 28654U 05018A 16196.47997266 .00000051 00000-0 53493-4 0 9996 2 28654 99.1970 204.1205 0013354 301.0609 58.9250 14.12293793574580 NOAA-19 1 33591U 09005A 16196.43823746 .00000111 00000-0 85268-4 0 9991 2 33591 99.0417 153.4374 0014628 138.7582 221.4697 14.12088635382984 HUBBLE 1 20580U 90037B 16196.75404247 .00000989 00000-0 50715-4 0 9998 2 20580 28.4704 76.6667 0002921 142.6291 268.8202 15.08422015239278 ISS 1 25544U 98067A 16196.86361319 .00005378 00000-0 86234-4 0 9990 2 25544 51.6453 279.9496 0001602 60.6995 48.9363 15.54827117 9290 CO-58 1 28895U 05043F 16196.44937519 .00000309 00000-0 68589-4 0 9991 2 28895 97.8343 9.0168 0018053 129.4698 230.8105 14.63219291571097 CAPE1 1 31130U 07012P 16195.85981601 .00000248 00000-0 63155-4 0 9996 2 31130 98.0346 150.3340 0096673 172.2342 188.0380 14.55950012490012 AAUSAT2 1 32788U 08021F 16196.11439083 .00001002 00000-0 10090-3 0 9997 2 32788 97.6016 238.0955 0012352 173.0114 187.1280 14.93271886445213 DO-64 1 32789U 08021G 16195.82084158 .00002802 00000-0 21030-3 0 9999 2 32789 97.6055 254.5810 0014105 161.8961 198.2770 15.03369032446001 CO-66 1 32791U 08021J 16196.05501433 .00000777 00000-0 86354-4 0 9998 2 32791 97.6016 232.4053 0013288 190.3468 169.7479 14.89809312444791 RS-30 1 32953U 08025A 16196.72923545 -.00000004 00000-0 -97209-4 0 9994 2 32953 82.5034 89.5286 0018399 305.2450 54.6908 12.43070231369501 JUGNU 1 37839U 11058B 16196.70789164 .00000337 00000-0 37977-4 0 9990 2 37839 19.9623 336.7119 0019096 63.4329 58.2421 14.12546088245927 SRMSAT 1 37841U 11058D 16195.86803553 .00000303 00000-0 21643-4 0 9994 2 37841 19.9732 16.5328 0011870 325.5278 171.6353 14.10544376245451 AO-71 1 37854U 11061E 16195.87676117 .00002905 00000-0 16734-3 0 9991 2 37854 101.7026 251.9449 0172587 355.2950 4.6568 15.02358075256108 HRBE 1 37855U 11061F 16195.84865968 .00002287 00000-0 13104-3 0 9994 2 37855 101.7145 249.9552 0186253 359.5462 0.5551 15.01277655255999 HORYU-2 1 38340U 12025D 16196.78080060 .00000544 00000-0 88825-4 0 9998 2 38340 98.3563 183.2225 0010399 287.4494 72.5577 14.75059536223541 RS-40 1 38735U 12041C 16196.52040204 -.00000002 00000-0 -84337-4 0 9997 2 38735 82.4753 174.7274 0018013 46.7978 313.4603 12.42572297179764 BEESAT-3 1 39134U 13015E 16196.49129193 .00005057 00000-0 26057-3 0 9991 2 39134 64.8706 235.0382 0010644 298.5356 61.5209 15.16096352178253 BEESAT-2 1 39136U 13015G 16196.14508112 .00001984 00000-0 11995-3 0 9997 2 39136 64.8713 242.5051 0009722 295.9914 64.0208 15.13736693178089 ZACUBE-1 1 39417U 13066B 16196.11157163 .00000377 00000-0 54746-4 0 9995 2 39417 97.6778 247.8310 0058204 295.5796 63.9408 14.80424679142751 TRITON-1 1 39427U 13066M 16196.57301370 .00000415 00000-0 75082-4 0 9996 2 39427 97.6656 228.1235 0114406 350.5149 9.3895 14.67215321141532 GOMX-1 1 39430U 13066Q 16196.76341617 .00000484 00000-0 97129-4 0 9991 2 39430 97.6690 215.6112 0153228 29.0589 331.9025 14.58623109140748 LO-74 1 39440U 13066AA 16196.07925924 .00000354 00000-0 57204-4 0 9991 2 39440 97.6715 239.7746 0080006 317.3709 42.1309 14.75185610142249 SPROUT 1 39770U 14029E 16195.77080327 .00001494 00000-0 17948-3 0 9998 2 39770 97.8731 292.7016 0009058 7.2167 352.9197 14.85457549115886 EO-80 1 40032U 14033Y 16196.84629973 .00000688 00000-0 81804-4 0 9998 2 40032 97.9247 101.7352 0011452 334.6273 25.4379 14.87614020112286 VELOX-1 1 40057U 14034E 16196.77697502 .00000593 00000-0 92300-4 0 9999 2 40057 98.1949 285.9900 0012377 62.8199 297.4272 14.76745530109955 DAURIA DX 1 1 40071U 14037C 16196.77587515 .00000266 00000-0 41938-4 0 9998 2 40071 98.3320 288.7472 0009780 61.2380 298.9822 14.80836482109038 UKUBE-1 1 40074U 14037F 16196.80506380 .00000654 00000-0 87406-4 0 9997 2 40074 98.3367 291.0298 0005882 67.5188 292.6655 14.83112767109164 HODOYOSHI-1 1 40299U 14070B 16196.82348955 .00001549 00000-0 72047-4 0 9996 2 40299 97.4285 278.3398 0013265 187.8387 268.8798 15.21394490 93637 CHUBUSAT-1 1 40300U 14070C 16196.73300156 .00001755 00000-0 84530-4 0 9999 2 40300 97.4247 276.4040 0020461 197.8322 261.3852 15.19908496 93517 QSAT-EOS 1 40301U 14070D 16196.79361189 .00003450 00000-0 15599-3 0 9991 2 40301 97.4184 275.8328 0028636 198.0277 256.7108 15.21241912 93501 FIREBIRD FU3 1 40377U 15003B 16196.78542577 .00004970 00000-0 22422-3 0 9993 2 40377 99.0881 308.8483 0143967 39.0663 322.0854 15.12773550 79959 FIREBIRD FU4 1 40378U 15003C 16196.78161395 .00004909 00000-0 22129-3 0 9995 2 40378 99.0883 308.8595 0144195 39.0299 322.1227 15.12784451 79952 GRIFEX 1 40379U 15003D 16196.75029574 .00003515 00000-0 16652-3 0 9991 2 40379 99.0888 307.8903 0148399 42.9426 318.3272 15.10967285 79891 NO-84 1 40654U 15025D 16196.40930619 .00017105 00000-0 35222-3 0 01721 2 40654 054.9997 298.2489 0207915 140.2263 221.4184 15.26236441028194 NO-83 1 40655U 15025E 16196.49265514 .00023783 00000-0 44516-3 0 01901 2 40655 054.9838 290.5759 0188850 143.4836 217.9241 15.31488641028282 DEORBITSAIL 1 40719U 15032E 16195.73591094 .00000765 00000-0 11948-3 0 9996 2 40719 98.0142 87.1318 0017221 146.9596 213.2692 14.75584835 54406 NUDT-PHONESAT 1 40900U 15049B 16196.73639641 .00004882 00000-0 24956-3 0 9995 2 40900 97.4447 203.9767 0013874 327.2628 32.7744 15.17049090 45256 XW-2D 1 40907U 15049J 16196.67237415 .00001896 00000-0 10869-3 0 9998 2 40907 97.4501 203.0254 0013579 305.1117 54.8841 15.13716501 45163 XW-2F 1 40910U 15049M 16196.82975123 .00003235 00000-0 18035-3 0 9996 2 40910 97.4528 203.3956 0014463 302.8792 57.1047 15.14207266 45083 XW-2B 1 40911U 15049N 16196.67217754 .00001853 00000-0 10640-3 0 9997 2 40911 97.4548 203.2144 0013487 305.3686 54.6284 15.13698629 45068 DCBB 1 40912U 15049P 16196.81816178 .00002785 00000-0 14746-3 0 9995 2 40912 97.4534 204.2360 0014697 298.6297 186.1314 15.16159456 45148 TW-1C 1 40926U 15051B 16196.81354632 .00009066 00000-0 25297-3 0 9997 2 40926 97.2733 233.4335 0012226 314.9728 164.3042 15.36892101 45009 TW-1A 1 40928U 15051D 16196.88589441 .00004351 00000-0 13657-3 0 9993 2 40928 97.2683 232.5178 0013134 335.7145 149.8169 15.33473821 44966 IO-86 1 40931U 15052B 16196.70689889 .00000682 00000-0 60820-5 0 9995 2 40931 5.9978 118.9040 0012762 149.8606 210.2267 14.76468409 43008 GomX-3 1 40949U 98067HA 16196.74767593 .00185359 00000-0 87848-3 0 9996 2 40949 51.6290 251.4329 0004682 345.3048 14.8338 15.82210781 44420 LQSat 1 40958U 15057A 16196.75725683 .00000117 00000-0 26012-4 0 9994 2 40958 98.0135 271.2879 0019640 67.5619 292.7664 14.72880025 41440 AO-85 1 40967U 15058D 16196.37765990 .00000249 00000-0 45384-4 0 01887 2 40967 064.7745 163.3826 0201327 196.8598 162.5753 14.75059516027282 ATHENOXAT-1 1 41168U 15077C 16196.91350822 .00003503 00000-0 16892-3 0 9993 2 41168 14.9862 110.7006 0012994 26.7731 51.7114 15.10082283 31955 ChubuSat-2 1 41338U 16012B 16195.88142838 .00000624 00000-0 42836-4 0 9992 2 41338 31.0029 100.3843 0014106 309.8086 50.1314 14.99415326 22160 ChubuSat-3 1 41339U 16012C 16196.79028943 .00000635 00000-0 43451-4 0 9990 2 41339 31.0107 94.3258 0013935 325.0310 34.9417 14.99645739 22278 Horyu-4 1 41340U 16012D 16196.08876559 .00001107 00000-0 79899-4 0 9998 2 41340 31.0054 98.2007 0014422 323.7798 36.1860 15.00069125 22192 OUFTI-1 1 41458U 16025C 16195.87965156 .00003697 00000-0 21166-3 0 9999 2 41458 98.2096 207.9033 0175310 339.1193 20.2949 15.01244004 11782 [email protected] 1 41459U 16025D 16196.47948424 .00003429 00000-0 19174-3 0 9995 2 41459 98.2152 208.5353 0175331 337.0593 22.3432 15.01226916 11874 AAUSAT4 1 41460U 16025E 16196.80664094 .00004649 00000-0 26435-3 0 9995 2 41460 98.2056 208.8898 0174150 335.8304 23.4816 15.01450108 11926 MinXSS 1 41474U 98067HU 16196.82750109 .00036380 00000-0 47486-3 0 9997 2 41474 51.6422 279.1965 0001958 288.5545 71.5235 15.58316215 9246 CADRE 1 41475U 98067HV 16196.80337342 .00047757 00000-0 59278-3 0 9998 2 41475 51.6409 279.0318 0003331 316.8136 43.2596 15.59521929 9248 STMSat 1 1 41476U 98067HW 16196.63469002 .00033050 00000-0 43361-3 0 9996 2 41476 51.6414 280.1562 0001663 292.9702 67.1115 15.58227991 9128 NODES 1 1 41477U 98067HX 16196.64947400 .00024904 00000-0 33829-3 0 9997 2 41477 51.6415 280.2563 0001468 268.6899 91.3925 15.57455538 9129 NODES 2 1 41478U 98067HY 16196.65055676 .00024711 00000-0 33621-3 0 9990 2 41478 51.6411 280.2627 0001439 271.1639 88.9188 15.57416513 9129 NuSat1-LUSEX 1 41557U 16033B 16196.85978381 .00003064 00000-0 12372-3 0 9998 2 41557 97.4962 270.0579 0016593 113.9748 355.9213 15.25433547 6977 NuSat2 1 41558U 16033C 16196.79569218 .00002954 00000-0 11992-3 0 9991 2 41558 97.4986 269.9969 0016186 112.7833 342.2799 15.25292027 6967 Lapan A3 1 41603U 16040E 16196.88420630 .00000560 00000-0 29950-4 0 9999 2 41603 97.5095 255.9122 0013989 163.1193 311.2246 15.19061671 3448 Swayam 1 41607U 16040J 16196.20631847 .00003534 00000-0 17177-3 0 9994 2 41607 97.5074 255.2257 0015416 169.7498 190.4054 15.18988193 3268 /EX